AZERSPACE 1

Last updated on Sun Jun 21 2026 00:03:05 GMT+0000 (Coordinated Universal Time)

1 39079U 13006B 26171.18727037 .00000128 00000+0 00000+0 0 9999 2 39079 0.0220 61.3800 0001442 56.9674 263.4413 1.00271706 48830
UTC large
Height (km)
Speed (km/s)
/
Latitude / Longitude
Inclination (degrees)
Orbital Period (minutes)
Azimuth
Elevation
Range (km)
Doppler Factor

Next 0 passes for location: London (51.5072 / 0.1276)

No passes found over London.
AZERSPACE 1